Location: De Lemmer
(52.8462°N, 5.7091°E)
Time: 11:05:08
(UTC+00:00)

Cosmos 1844 - Pass Details

Date: 18 September 2020
Orbit: 824 x 866 km, 70.9° (Epoch: 30 October)

Event Time Altitude Azimuth Distance (km) Brightness Sun altitude
Rises 21:11:09 0° 228° (SW) 3,411 6.8 -28.4°
Reaches altitude 10° 21:13:41 10° 233° (SW) 2,472 6.1 -28.6°
Maximum altitude 21:19:12 52° 309° (NW) 1,046 4.4 -29.1°
Drops below altitude 10° 21:24:43 10° 26° (NNE) 2,458 6.4 -29.6°
Sets 21:27:14 0° 32° (NNE) 3,390 7.1 -29.9°
